TimeCDT,TemperatureF,Dew PointF,Humidity,Sea Level PressureIn,VisibilityMPH,Wind Direction,Wind SpeedMPH,Gust SpeedMPH,PrecipitationIn,Events,Conditions,WindDirDegrees,DateUTC
12:52 AM,78.1,72.0,81,29.98,10.0,North,5.8,-,N/A,,Clear,10,2013-07-11 05:52:00
1:52 AM,77.0,71.1,82,29.98,10.0,East,4.6,-,N/A,,Clear,80,2013-07-11 06:52:00
2:52 AM,73.9,70.0,87,29.98,10.0,Calm,Calm,-,N/A,,Clear,0,2013-07-11 07:52:00
3:52 AM,73.9,71.1,91,29.97,10.0,NE,4.6,-,N/A,,Clear,50,2013-07-11 08:52:00
4:52 AM,73.0,70.0,90,29.99,10.0,NE,6.9,-,N/A,,Clear,40,2013-07-11 09:52:00
5:52 AM,72.0,69.1,91,29.99,10.0,NE,6.9,-,N/A,,Overcast,50,2013-07-11 10:52:00
6:52 AM,72.0,68.0,87,30.00,10.0,NE,10.4,-,N/A,,Partly Cloudy,50,2013-07-11 11:52:00
7:52 AM,73.9,66.9,79,30.01,10.0,ENE,9.2,-,N/A,,Clear,70,2013-07-11 12:52:00
8:52 AM,77.0,66.9,71,30.02,10.0,East,6.9,-,N/A,,Clear,80,2013-07-11 13:52:00
9:52 AM,81.0,68.0,65,30.01,10.0,NNE,6.9,-,N/A,,Clear,30,2013-07-11 14:52:00
10:52 AM,82.9,68.0,60,30.01,10.0,NE,10.4,-,N/A,,Clear,50,2013-07-11 15:52:00
11:52 AM,84.0,68.0,58,30.02,10.0,NNE,10.4,-,N/A,,Clear,20,2013-07-11 16:52:00
12:52 PM,87.1,66.0,49,30.02,10.0,NNE,10.4,-,N/A,,Clear,30,2013-07-11 17:52:00
1:52 PM,87.1,64.9,48,30.01,10.0,NNE,10.4,-,N/A,,Clear,30,2013-07-11 18:52:00
2:52 PM,88.0,63.0,43,30.01,10.0,NNE,8.1,-,N/A,,Clear,30,2013-07-11 19:52:00
3:52 PM,88.0,62.1,42,30.00,10.0,NE,10.4,-,N/A,,Clear,40,2013-07-11 20:52:00
4:52 PM,89.1,59.0,36,29.98,10.0,NE,12.7,-,N/A,,Clear,40,2013-07-11 21:52:00
5:52 PM,87.1,60.1,40,29.96,10.0,NE,9.2,-,N/A,,Clear,40,2013-07-11 22:52:00
6:52 PM,84.9,57.9,40,29.95,10.0,East,9.2,-,N/A,,Clear,80,2013-07-11 23:52:00
7:52 PM,82.9,61.0,47,29.96,10.0,ENE,10.4,-,N/A,,Clear,70,2013-07-12 00:52:00
8:52 PM,79.0,62.1,56,29.97,10.0,ENE,9.2,-,N/A,,Clear,60,2013-07-12 01:52:00
9:52 PM,77.0,62.1,60,29.99,10.0,ENE,8.1,-,N/A,,Clear,70,2013-07-12 02:52:00
10:52 PM,75.9,61.0,60,29.99,10.0,East,10.4,-,N/A,,Clear,80,2013-07-12 03:52:00
11:52 PM,73.0,62.1,68,29.99,10.0,East,8.1,-,N/A,,Clear,100,2013-07-12 04:52:00